QPF
0.00 0.00 0.00 0.01 0.01 0.01 0.00 0.01 0.01 0.02 0.01 0.02 0.03 0.03 0.03 0.03 0.02 0.02 0.02 0.02 0.02 0.01 0.01 0.02 0.03 0.02 0.02 0.03 0.05 0.05 0.06 0.04 0.06 0.09 0.08 0.08 0.08 0.10 0.08 0.10 0.13 0.14 0.13
0.00 0.00 0.01 0.01 0.01 0.01 0.00 0.00 0.01 0.01 0.01 0.01 0.02 0.02 0.03 0.02 0.02 0.03 0.03 0.03 0.03 0.03 0.02 0.03 0.04 0.03 0.02 0.03 0.04 0.05 0.06 0.04 0.05 0.07 0.07 0.06 0.08 0.11 0.09 0.11 0.11 0.15 0.20
0.00 0.00 0.00 0.01 0.02 0.02 0.01 0.01 0.01 0.02 0.01 0.02 0.02 0.02 0.03 0.02 0.03 0.03 0.03 0.03 0.03 0.04 0.03 0.03 0.04 0.03 0.03 0.04 0.04 0.06 0.05 0.06 0.06 0.07 0.08 0.08 0.09 0.10 0.13 0.14 0.14 0.13 0.12
0.00 0.00 0.00 0.00 0.01 0.01 0.01 0.01 0.01 0.02 0.03 0.03 0.03 0.03 0.03 0.02 0.02 0.02 0.03 0.03 0.03 0.03 0.03 0.04 0.04 0.03 0.03 0.04 0.04 0.08 0.08 0.07 0.06 0.07 0.07 0.09 0.11 0.10 0.12 0.13 0.13 0.12 0.12
0.00 0.00 0.00 0.00 0.00 0.01 0.02 0.02 0.02 0.01 0.02 0.03 0.02 0.03 0.03 0.03 0.03 0.03 0.04 0.05 0.03 0.04 0.04 0.05 0.04 0.03 0.04 0.04 0.04 0.05 0.08 0.06 0.07 0.07 0.07 0.07 0.10 0.08 0.09 0.10 0.11 0.10 0.11
0.00 0.01 0.01 0.00 0.01 0.02 0.03 0.04 0.04 0.02 0.01 0.02 0.02 0.03 0.03 0.03 0.04 0.04 0.05 0.05 0.03 0.04 0.05 0.05 0.03 0.03 0.05 0.05 0.05 0.05 0.06 0.06 0.05 0.06 0.07 0.06 0.07 0.08 0.09 0.09 0.08 0.07 0.07
0.01 0.01 0.00 0.00 0.01 0.02 0.05 0.08 0.07 0.05 0.02 0.02 0.03 0.03 0.03 0.04 0.04 0.03 0.04 0.03 0.03 0.05 0.07 0.05 0.04 0.04 0.04 0.05 0.06 0.06 0.05 0.05 0.06 0.07 0.07 0.06 0.07 0.06 0.07 0.06 0.06 0.06 0.05
0.01 0.01 0.00 0.00 0.01 0.01 0.02 0.05 0.09 0.07 0.04 0.02 0.02 0.03 0.04 0.05 0.05 0.04 0.05 0.05 0.05 0.07 0.09 0.09 0.09 0.07 0.07 0.08 0.07 0.05 0.04 0.05 0.06 0.06 0.06 0.05 0.06 0.04 0.04 0.05 0.06 0.05 0.04
0.01 0.01 0.01 0.01 0.01 0.00 0.00 0.06 0.12 0.05 0.03 0.01 0.01 0.01 0.03 0.06 0.06 0.07 0.08 0.07 0.07 0.08 0.11 0.15 0.13 0.11 0.09 0.07 0.06 0.05 0.05 0.05 0.05 0.05 0.05 0.05 0.04 0.04 0.04 0.04 0.05 0.04 0.03
0.03 0.03 0.03 0.01 0.01 0.00 0.00 0.01 0.01 0.01 0.01 0.00 0.01 0.01 0.01 0.03 0.05 0.07 0.09 0.10 0.13 0.14 0.15 0.17 0.15 0.11 0.08 0.07 0.07 0.05 0.06 0.07 0.07 0.06 0.04 0.04 0.03 0.03 0.03 0.03 0.04 0.04 0.03
0.04 0.05 0.02 0.01 0.01 0.01 0.01 0.01 0.01 0.01 0.01 0.01 0.01 0.01 0.01 0.02 0.05 0.07 0.08 0.09 0.13 0.18 0.14 0.13 0.11 0.09 0.07 0.06 0.07 0.06 0.06 0.06 0.07 0.06 0.05 0.05 0.04 0.03 0.03 0.04 0.06 0.06 0.05
0.05 0.04 0.02 0.02 0.02 0.03 0.02 0.02 0.02 0.01 0.01 0.01 0.01 0.01 0.01 0.02 0.04 0.05 0.08 0.08 0.13 0.23 0.19 0.11 0.08 0.07 0.07 0.09 0.09 0.08 0.07 0.04 0.04 0.05 0.04 0.04 0.03 0.03 0.03 0.04 0.05 0.05 0.05
0.02 0.02 0.02 0.03 0.04 0.07 0.05 0.03 0.02 0.02 0.01 0.01 0.01 0.01 0.01 0.02 0.03 0.05 0.08 0.09 0.10 0.13 0.17 0.15 0.12 0.09 0.07 0.06 0.06 0.06 0.06 0.05 0.05 0.06 0.05 0.04 0.04 0.03 0.02 0.03 0.03 0.03 0.05
0.02 0.02 0.04 0.05 0.06 0.05 0.03 0.02 0.02 0.02 0.02 0.01 0.01 0.01 0.02 0.03 0.04 0.05 0.06 0.06 0.05 0.04 0.05 0.04 0.04 0.03 0.03 0.03 0.03 0.03 0.04 0.04 0.04 0.04 0.03 0.03 0.02 0.02 0.03 0.04 0.03 0.03 0.04
0.01 0.02 0.06 0.04 0.02 0.01 0.01 0.01 0.01 0.01 0.01 0.01 0.02 0.03 0.05 0.04 0.05 0.05 0.05 0.05 0.06 0.05 0.02 0.02 0.01 0.01 0.01 0.02 0.02 0.02 0.03 0.03 0.04 0.04 0.03 0.02 0.03 0.04 0.04 0.05 0.06 0.05 0.05
0.01 0.02 0.04 0.03 0.01 0.01 0.02 0.01 0.01 0.01 0.01 0.03 0.06 0.07 0.06 0.05 0.05 0.04 0.04 0.05 0.08 0.05 0.02 0.01 0.01 0.00 0.00 0.01 0.02 0.02 0.02 0.03 0.03 0.03 0.02 0.03 0.04 0.05 0.05 0.06 0.05 0.05 0.04
0.02 0.03 0.05 0.03 0.03 0.02 0.02 0.02 0.01 0.02 0.03 0.04 0.06 0.08 0.08 0.07 0.07 0.07 0.05 0.03 0.02 0.02 0.02 0.01 0.01 0.00 0.01 0.01 0.01 0.01 0.02 0.03 0.03 0.02 0.02 0.01 0.02 0.04 0.03 0.04 0.04 0.04 0.05
0.04 0.04 0.04 0.04 0.03 0.03 0.03 0.04 0.02 0.02 0.04 0.04 0.06 0.08 0.08 0.08 0.08 0.08 0.06 0.04 0.03 0.02 0.01 0.01 0.00 0.00 0.01 0.01 0.02 0.02 0.01 0.02 0.02 0.02 0.01 0.01 0.02 0.03 0.03 0.04 0.06 0.08 0.07
0.03 0.04 0.05 0.05 0.05 0.06 0.09 0.10 0.05 0.04 0.04 0.04 0.05 0.08 0.13 0.11 0.08 0.06 0.05 0.03 0.02 0.01 0.00 0.00 0.00 0.00 0.01 0.01 0.02 0.02 0.01 0.01 0.02 0.01 0.01 0.01 0.01 0.03 0.04 0.05 0.06 0.06 0.03
0.03 0.09 0.11 0.11 0.11 0.11 0.08 0.08 0.07 0.05 0.03 0.03 0.03 0.04 0.09 0.09 0.04 0.04 0.02 0.02 0.01 0.01 0.01 0.00 0.00 0.00 0.01 0.01 0.02 0.01 0.01 0.01 0.01 0.01 0.01 0.01 0.01 0.03 0.03 0.02 0.02 0.02 0.01
0.08 0.11 0.08 0.10 0.14 0.16 0.11 0.10 0.06 0.03 0.03 0.03 0.03 0.03 0.04 0.09 0.04 0.03 0.02 0.02 0.01 0.01 0.00 0.00 0.00 0.00 0.01 0.01 0.02 0.02 0.01 0.01 0.01 0.01 0.01 0.01 0.01 0.01 0.01 0.01 0.00 0.00 0.00
0.07 0.07 0.05 0.06 0.10 0.11 0.09 0.08 0.07 0.06 0.06 0.05 0.04 0.03 0.03 0.04 0.03 0.02 0.03 0.02 0.01 0.01 0.00 0.00 0.00 0.01 0.00 0.00 0.01 0.01 0.01 0.00 0.00 0.00 0.00 0.00 0.00 0.00 0.00 0.00 0.00 0.00 0.01
0.04 0.05 0.05 0.05 0.06 0.06 0.06 0.06 0.06 0.06 0.06 0.05 0.04 0.04 0.05 0.04 0.06 0.07 0.05 0.02 0.01 0.01 0.01 0.01 0.01 0.01 0.00 0.00 0.00 0.00 0.00 0.00 0.00 0.00 0.00 0.00 0.00 0.00 0.00 0.00 0.00 0.00 0.00
0.05 0.06 0.06 0.06 0.06 0.06 0.06 0.07 0.06 0.06 0.06 0.05 0.05 0.04 0.05 0.07 0.09 0.08 0.05 0.03 0.02 0.02 0.02 0.02 0.02 0.01 0.00 0.00 0.00 0.00 0.00 0.00 0.00 0.00 0.00 0.00 0.01 0.01 0.01 0.01 0.01 0.01 0.00
0.13 0.08 0.07 0.06 0.05 0.05 0.06 0.06 0.06 0.06 0.06 0.06 0.05 0.04 0.05 0.07 0.07 0.05 0.04 0.03 0.03 0.03 0.03 0.02 0.01 0.01 0.01 0.00 0.00 0.00 0.00 0.00 0.00 0.00 0.00 0.00 0.01 0.01 0.01 0.01 0.01 0.01 0.01
0.11 0.09 0.08 0.07 0.06 0.08 0.09 0.09 0.09 0.08 0.06 0.05 0.05 0.04 0.03 0.04 0.04 0.04 0.03 0.04 0.04 0.04 0.04 0.02 0.01 0.01 0.01 0.01 0.00 0.00 0.00 0.00 0.00 0.00 0.00 0.00 0.01 0.01 0.01 0.01 0.01 0.01 0.01
MSLP
1014.54 1014.68 1014.74 1014.71 1014.62 1014.49 1014.39 1014.36 1014.42 1014.60 1014.86 1015.17 1015.47 1015.72 1015.86 1015.88 1015.78 1015.60 1015.39 1015.20 1015.08 1015.07 1015.18 1015.39 1015.68 1016.01 1016.32 1016.61 1016.85 1017.03 1017.19 1017.33 1017.47 1017.62 1017.78 1017.93 1018.07 1018.16 1018.20 1018.18 1018.12 1018.04 1017.96
1014.53 1014.75 1014.87 1014.87 1014.77 1014.61 1014.47 1014.38 1014.41 1014.57 1014.83 1015.15 1015.48 1015.74 1015.88 1015.89 1015.75 1015.51 1015.22 1014.96 1014.78 1014.72 1014.80 1015.00 1015.29 1015.63 1015.97 1016.28 1016.54 1016.76 1016.95 1017.13 1017.33 1017.54 1017.76 1017.98 1018.18 1018.32 1018.38 1018.36 1018.28 1018.16 1018.02
1014.43 1014.74 1014.93 1014.99 1014.91 1014.76 1014.59 1014.47 1014.47 1014.60 1014.85 1015.17 1015.51 1015.78 1015.92 1015.92 1015.76 1015.48 1015.16 1014.85 1014.62 1014.51 1014.55 1014.71 1014.97 1015.29 1015.61 1015.90 1016.16 1016.39 1016.60 1016.82 1017.07 1017.36 1017.66 1017.97 1018.24 1018.45 1018.56 1018.58 1018.50 1018.36 1018.18
1014.23 1014.62 1014.90 1015.02 1015.00 1014.87 1014.71 1014.58 1014.55 1014.66 1014.89 1015.20 1015.53 1015.81 1015.96 1015.96 1015.81 1015.53 1015.19 1014.87 1014.61 1014.46 1014.45 1014.56 1014.76 1015.02 1015.28 1015.52 1015.74 1015.95 1016.16 1016.41 1016.71 1017.06 1017.44 1017.84 1018.20 1018.49 1018.68 1018.74 1018.70 1018.57 1018.39
1013.95 1014.42 1014.77 1014.98 1015.02 1014.94 1014.80 1014.68 1014.64 1014.72 1014.93 1015.22 1015.54 1015.82 1015.99 1016.01 1015.88 1015.63 1015.32 1015.00 1014.73 1014.56 1014.50 1014.55 1014.68 1014.84 1015.01 1015.18 1015.33 1015.49 1015.68 1015.92 1016.25 1016.64 1017.09 1017.56 1018.01 1018.37 1018.63 1018.76 1018.78 1018.70 1018.56
1013.65 1014.16 1014.58 1014.86 1014.97 1014.95 1014.85 1014.75 1014.71 1014.78 1014.96 1015.23 1015.54 1015.81 1016.00 1016.05 1015.97 1015.77 1015.50 1015.21 1014.96 1014.78 1014.69 1014.67 1014.71 1014.77 1014.84 1014.90 1014.97 1015.05 1015.19 1015.41 1015.73 1016.14 1016.62 1017.13 1017.63 1018.06 1018.38 1018.58 1018.67 1018.67 1018.61
1013.38 1013.90 1014.37 1014.71 1014.89 1014.92 1014.87 1014.79 1014.76 1014.82 1014.98 1015.24 1015.53 1015.80 1016.00 1016.09 1016.06 1015.92 1015.72 1015.48 1015.26 1015.09 1014.96 1014.89 1014.85 1014.82 1014.78 1014.73 1014.70 1014.70 1014.77 1014.94 1015.22 1015.60 1016.07 1016.58 1017.09 1017.55 1017.91 1018.18 1018.35 1018.44 1018.49
1013.19 1013.71 1014.19 1014.57 1014.80 1014.88 1014.87 1014.82 1014.81 1014.86 1015.02 1015.25 1015.52 1015.79 1016.01 1016.13 1016.15 1016.08 1015.94 1015.77 1015.59 1015.43 1015.30 1015.19 1015.08 1014.97 1014.84 1014.70 1014.57 1014.48 1014.47 1014.57 1014.78 1015.10 1015.52 1015.98 1016.46 1016.90 1017.29 1017.60 1017.85 1018.04 1018.22
1013.14 1013.62 1014.10 1014.48 1014.74 1014.86 1014.88 1014.86 1014.86 1014.92 1015.07 1015.28 1015.55 1015.81 1016.04 1016.19 1016.25 1016.24 1016.16 1016.05 1015.92 1015.79 1015.66 1015.53 1015.39 1015.22 1015.03 1014.82 1014.62 1014.46 1014.37 1014.38 1014.50 1014.73 1015.05 1015.43 1015.83 1016.23 1016.59 1016.93 1017.23 1017.53 1017.84
1013.23 1013.66 1014.10 1014.47 1014.72 1014.85 1014.89 1014.90 1014.92 1014.99 1015.14 1015.35 1015.61 1015.87 1016.10 1016.27 1016.37 1016.40 1016.38 1016.32 1016.24 1016.14 1016.04 1015.92 1015.77 1015.58 1015.36 1015.11 1014.87 1014.65 1014.50 1014.42 1014.45 1014.57 1014.77 1015.03 1015.32 1015.63 1015.95 1016.28 1016.62 1017.00 1017.43
1013.43 1013.81 1014.18 1014.50 1014.71 1014.83 1014.88 1014.90 1014.95 1015.04 1015.21 1015.43 1015.69 1015.95 1016.19 1016.38 1016.51 1016.58 1016.60 1016.58 1016.54 1016.49 1016.43 1016.33 1016.20 1016.03 1015.82 1015.58 1015.32 1015.08 1014.88 1014.74 1014.67 1014.68 1014.75 1014.87 1015.04 1015.25 1015.49 1015.78 1016.13 1016.55 1017.06
1013.68 1013.98 1014.27 1014.50 1014.66 1014.74 1014.79 1014.82 1014.90 1015.03 1015.23 1015.48 1015.76 1016.05 1016.31 1016.52 1016.67 1016.77 1016.82 1016.85 1016.86 1016.85 1016.83 1016.78 1016.69 1016.56 1016.39 1016.18 1015.94 1015.70 1015.48 1015.29 1015.15 1015.05 1015.01 1015.00 1015.04 1015.13 1015.28 1015.50 1015.82 1016.26 1016.81
1013.86 1014.07 1014.26 1014.40 1014.48 1014.52 1014.55 1014.60 1014.71 1014.89 1015.15 1015.45 1015.78 1016.11 1016.40 1016.65 1016.83 1016.96 1017.06 1017.13 1017.18 1017.22 1017.24 1017.24 1017.21 1017.14 1017.02 1016.87 1016.67 1016.46 1016.24 1016.03 1015.84 1015.66 1015.52 1015.40 1015.32 1015.29 1015.34 1015.49 1015.75 1016.16 1016.70
1013.84 1013.97 1014.06 1014.09 1014.09 1014.08 1014.10 1014.18 1014.34 1014.59 1014.91 1015.29 1015.70 1016.09 1016.44 1016.74 1016.97 1017.15 1017.29 1017.41 1017.50 1017.59 1017.66 1017.72 1017.74 1017.73 1017.67 1017.57 1017.43 1017.26 1017.06 1016.85 1016.64 1016.42 1016.20 1016.00 1015.82 1015.70 1015.65 1015.71 1015.90 1016.24 1016.73
1013.53 1013.58 1013.57 1013.51 1013.45 1013.40 1013.42 1013.53 1013.75 1014.08 1014.50 1014.98 1015.48 1015.96 1016.39 1016.76 1017.07 1017.31 1017.51 1017.67 1017.81 1017.94 1018.06 1018.15 1018.22 1018.26 1018.25 1018.20 1018.12 1017.99 1017.84 1017.65 1017.44 1017.21 1016.96 1016.71 1016.47 1016.27 1016.15 1016.13 1016.23 1016.49 1016.90
1012.88 1012.86 1012.77 1012.65 1012.54 1012.48 1012.52 1012.68 1012.98 1013.41 1013.93 1014.51 1015.12 1015.70 1016.23 1016.70 1017.08 1017.40 1017.66 1017.88 1018.07 1018.24 1018.39 1018.51 1018.61 1018.67 1018.70 1018.69 1018.65 1018.57 1018.46 1018.32 1018.14 1017.93 1017.69 1017.43 1017.17 1016.93 1016.75 1016.66 1016.69 1016.86 1017.16
1011.92 1011.84 1011.71 1011.57 1011.45 1011.41 1011.49 1011.72 1012.10 1012.62 1013.24 1013.93 1014.64 1015.33 1015.96 1016.52 1017.00 1017.40 1017.74 1018.02 1018.25 1018.45 1018.61 1018.75 1018.85 1018.92 1018.96 1018.98 1018.97 1018.93 1018.87 1018.78 1018.66 1018.50 1018.30 1018.08 1017.84 1017.60 1017.40 1017.26 1017.22 1017.30 1017.50
1010.74 1010.66 1010.53 1010.39 1010.31 1010.32 1010.46 1010.77 1011.23 1011.83 1012.54 1013.31 1014.11 1014.88 1015.61 1016.26 1016.82 1017.30 1017.70 1018.04 1018.30 1018.52 1018.69 1018.82 1018.91 1018.97 1019.00 1019.02 1019.03 1019.04 1019.03 1019.01 1018.96 1018.88 1018.76 1018.60 1018.41 1018.21 1018.02 1017.86 1017.78 1017.79 1017.90
1009.55 1009.48 1009.39 1009.31 1009.30 1009.38 1009.60 1009.97 1010.50 1011.16 1011.92 1012.75 1013.60 1014.43 1015.21 1015.93 1016.56 1017.10 1017.56 1017.93 1018.23 1018.45 1018.61 1018.72 1018.78 1018.82 1018.83 1018.85 1018.87 1018.91 1018.96 1019.01 1019.05 1019.07 1019.05 1018.99 1018.88 1018.74 1018.58 1018.44 1018.34 1018.30 1018.34
1008.54 1008.52 1008.50 1008.50 1008.57 1008.75 1009.04 1009.47 1010.04 1010.72 1011.50 1012.33 1013.18 1014.03 1014.83 1015.57 1016.24 1016.82 1017.31 1017.71 1018.02 1018.25 1018.39 1018.47 1018.50 1018.50 1018.50 1018.51 1018.55 1018.62 1018.73 1018.86 1019.00 1019.13 1019.22 1019.26 1019.25 1019.18 1019.08 1018.97 1018.87 1018.80 1018.80
1007.90 1007.93 1008.00 1008.10 1008.26 1008.52 1008.87 1009.33 1009.91 1010.57 1011.32 1012.11 1012.92 1013.73 1014.51 1015.25 1015.92 1016.51 1017.01 1017.42 1017.73 1017.94 1018.07 1018.12 1018.12 1018.09 1018.07 1018.08 1018.14 1018.25 1018.42 1018.63 1018.86 1019.09 1019.29 1019.44 1019.52 1019.54 1019.49 1019.42 1019.34 1019.27 1019.24
1007.71 1007.82 1007.96 1008.15 1008.40 1008.72 1009.11 1009.57 1010.12 1010.73 1011.40 1012.10 1012.83 1013.57 1014.29 1014.98 1015.62 1016.19 1016.69 1017.09 1017.39 1017.59 1017.69 1017.72 1017.70 1017.67 1017.64 1017.65 1017.73 1017.89 1018.11 1018.39 1018.71 1019.03 1019.32 1019.55 1019.71 1019.79 1019.81 1019.77 1019.71 1019.64 1019.61
1008.00 1008.16 1008.37 1008.63 1008.93 1009.28 1009.68 1010.12 1010.61 1011.13 1011.69 1012.29 1012.90 1013.53 1014.17 1014.79 1015.38 1015.92 1016.39 1016.77 1017.06 1017.25 1017.34 1017.36 1017.33 1017.29 1017.27 1017.30 1017.40 1017.59 1017.87 1018.21 1018.58 1018.96 1019.31 1019.61 1019.82 1019.95 1020.00 1019.99 1019.94 1019.89 1019.85
1008.67 1008.85 1009.10 1009.40 1009.73 1010.09 1010.46 1010.85 1011.26 1011.68 1012.12 1012.59 1013.09 1013.61 1014.15 1014.69 1015.22 1015.71 1016.15 1016.51 1016.78 1016.96 1017.05 1017.07 1017.05 1017.02 1017.01 1017.06 1017.19 1017.41 1017.72 1018.09 1018.50 1018.91 1019.29 1019.61 1019.84 1019.99 1020.05 1020.05 1020.01 1019.96 1019.93
1009.54 1009.73 1009.99 1010.29 1010.62 1010.96 1011.29 1011.61 1011.94 1012.25 1012.59 1012.94 1013.32 1013.74 1014.19 1014.65 1015.12 1015.58 1015.98 1016.33 1016.59 1016.77 1016.87 1016.90 1016.89 1016.88 1016.89 1016.96 1017.12 1017.35 1017.67 1018.05 1018.46 1018.87 1019.24 1019.54 1019.77 1019.90 1019.96 1019.95 1019.91 1019.86 1019.83
1010.43 1010.60 1010.84 1011.12 1011.42 1011.72 1012.00 1012.26 1012.50 1012.73 1012.97 1013.23 1013.53 1013.87 1014.24 1014.65 1015.08 1015.50 1015.89 1016.22 1016.48 1016.67 1016.78 1016.83 1016.84 1016.86 1016.89 1016.99 1017.15 1017.39 1017.70 1018.06 1018.44 1018.82 1019.15 1019.41 1019.60 1019.70 1019.73 1019.71 1019.66 1019.61 1019.59
Thickness
5809 5808 5805 5802 5797 5793 5789 5786 5782 5780 5777 5773 5770 5767 5765 5765 5765 5765 5765 5764 5763 5762 5761 5760 5759 5758 5757 5757 5756 5755 5753 5752 5752 5748 5745 5746 5748 5747 5747 5746 5744 5742 5740
5807 5806 5804 5801 5797 5793 5790 5787 5784 5781 5779 5776 5773 5770 5768 5767 5766 5765 5765 5764 5763 5762 5761 5760 5759 5758 5757 5756 5755 5754 5751 5750 5751 5745 5739 5734 5737 5742 5746 5744 5742 5740 5739
5810 5807 5804 5801 5798 5794 5792 5790 5786 5783 5781 5778 5775 5772 5768 5766 5764 5763 5763 5763 5763 5762 5761 5761 5759 5758 5757 5755 5755 5754 5751 5747 5748 5748 5741 5732 5728 5733 5738 5740 5739 5737 5736
5816 5811 5807 5803 5800 5798 5796 5792 5788 5784 5782 5779 5774 5769 5764 5761 5762 5762 5763 5763 5763 5762 5761 5761 5760 5758 5757 5756 5755 5754 5752 5749 5745 5745 5745 5742 5738 5731 5728 5732 5734 5734 5733
5820 5815 5812 5808 5805 5802 5798 5793 5789 5785 5782 5779 5775 5770 5766 5764 5763 5763 5761 5761 5761 5761 5761 5760 5759 5758 5757 5756 5755 5754 5752 5750 5746 5744 5742 5740 5738 5735 5728 5723 5725 5727 5728
5823 5818 5816 5811 5806 5803 5798 5794 5788 5784 5782 5779 5775 5771 5767 5764 5762 5760 5759 5758 5759 5759 5759 5759 5758 5757 5756 5755 5754 5753 5751 5749 5747 5744 5742 5739 5735 5732 5728 5723 5721 5720 5721
5824 5819 5814 5809 5804 5801 5798 5794 5788 5783 5781 5778 5775 5772 5769 5765 5761 5759 5757 5756 5755 5755 5756 5757 5756 5756 5755 5754 5753 5751 5749 5747 5745 5743 5741 5739 5736 5734 5730 5725 5720 5717 5717
5826 5822 5817 5812 5807 5803 5798 5794 5789 5784 5781 5777 5774 5772 5769 5765 5762 5760 5758 5756 5755 5755 5755 5755 5754 5754 5753 5751 5750 5748 5746 5745 5742 5741 5739 5736 5734 5733 5730 5725 5719 5713 5710
5827 5823 5819 5814 5809 5804 5799 5795 5789 5784 5781 5777 5774 5771 5768 5765 5762 5760 5758 5756 5755 5754 5753 5752 5750 5750 5749 5747 5746 5743 5742 5741 5739 5737 5736 5733 5732 5730 5729 5726 5722 5714 5705
5826 5822 5817 5813 5810 5807 5802 5797 5792 5786 5782 5778 5774 5770 5767 5765 5762 5759 5756 5754 5752 5751 5749 5748 5747 5745 5744 5743 5741 5739 5738 5736 5735 5733 5731 5729 5728 5726 5725 5723 5720 5716 5709
5825 5822 5819 5815 5811 5807 5802 5796 5791 5786 5781 5777 5773 5769 5765 5763 5760 5757 5754 5751 5749 5746 5745 5743 5742 5741 5739 5738 5736 5734 5733 5731 5729 5728 5726 5724 5723 5721 5719 5718 5715 5711 5707
5827 5824 5819 5814 5809 5804 5801 5796 5791 5786 5781 5777 5772 5767 5764 5761 5757 5754 5752 5749 5746 5743 5741 5739 5737 5736 5735 5733 5731 5729 5727 5725 5722 5721 5720 5719 5718 5716 5714 5712 5709 5705 5702
5825 5820 5816 5812 5808 5804 5801 5796 5791 5786 5782 5777 5771 5765 5761 5758 5755 5751 5749 5746 5743 5740 5738 5736 5733 5731 5729 5727 5726 5724 5721 5719 5717 5716 5714 5713 5712 5709 5708 5706 5703 5699 5696
5822 5818 5814 5811 5807 5804 5800 5796 5791 5786 5781 5775 5769 5763 5759 5755 5752 5749 5746 5743 5740 5737 5734 5731 5728 5726 5724 5722 5720 5718 5715 5713 5712 5710 5709 5707 5705 5703 5701 5699 5695 5692 5687
5818 5815 5813 5810 5806 5803 5799 5794 5790 5785 5780 5773 5766 5761 5757 5753 5749 5745 5742 5738 5735 5732 5729 5726 5723 5721 5719 5717 5714 5712 5710 5707 5705 5703 5702 5701 5700 5698 5695 5692 5688 5685 5680
5816 5814 5811 5808 5804 5801 5798 5792 5787 5783 5778 5771 5764 5759 5754 5749 5745 5741 5737 5733 5730 5726 5723 5720 5717 5715 5714 5712 5710 5707 5704 5701 5699 5696 5695 5693 5691 5690 5688 5685 5683 5680 5674
5814 5813 5810 5808 5804 5800 5797 5791 5786 5781 5774 5768 5762 5756 5751 5745 5740 5737 5732 5728 5724 5720 5717 5714 5712 5709 5708 5707 5705 5702 5699 5695 5693 5690 5688 5687 5685 5683 5680 5678 5675 5672 5669
5815 5813 5810 5807 5804 5800 5796 5790 5784 5778 5771 5765 5760 5754 5749 5742 5737 5732 5727 5723 5719 5715 5712 5708 5706 5704 5702 5701 5699 5696 5692 5689 5686 5684 5682 5679 5677 5676 5673 5670 5667 5663 5660
5817 5815 5811 5807 5802 5797 5793 5786 5778 5772 5766 5761 5757 5752 5746 5739 5733 5728 5724 5720 5715 5711 5707 5704 5701 5698 5696 5696 5694 5690 5686 5682 5679 5677 5675 5673 5671 5669 5666 5663 5658 5655 5651
5815 5812 5808 5803 5797 5792 5788 5781 5773 5767 5762 5759 5754 5750 5743 5736 5730 5725 5720 5716 5711 5707 5703 5699 5696 5694 5692 5691 5688 5685 5681 5676 5672 5670 5668 5667 5664 5662 5659 5655 5651 5646 5643
5809 5807 5802 5797 5792 5789 5783 5775 5769 5764 5761 5757 5751 5745 5739 5734 5728 5722 5717 5711 5707 5703 5698 5694 5691 5689 5687 5685 5683 5680 5676 5671 5667 5663 5661 5659 5657 5655 5652 5649 5645 5641 5637
5800 5799 5794 5789 5786 5783 5776 5770 5764 5762 5757 5752 5746 5740 5735 5730 5724 5718 5712 5707 5702 5697 5692 5689 5685 5683 5681 5680 5677 5674 5671 5667 5662 5657 5655 5653 5651 5648 5645 5642 5639 5635 5631
5791 5790 5785 5780 5778 5776 5773 5764 5760 5756 5751 5745 5740 5735 5730 5725 5719 5714 5708 5703 5698 5693 5688 5684 5680 5676 5675 5673 5671 5668 5665 5661 5657 5653 5650 5647 5645 5641 5638 5635 5632 5628 5623
5781 5779 5775 5770 5767 5767 5765 5761 5756 5751 5746 5739 5734 5729 5724 5719 5714 5709 5705 5699 5694 5689 5685 5680 5675 5671 5668 5666 5664 5661 5658 5655 5651 5647 5644 5641 5638 5634 5631 5628 5624 5620 5616
5771 5769 5766 5763 5760 5759 5757 5754 5751 5746 5739 5733 5728 5722 5718 5713 5707 5702 5697 5694 5691 5688 5684 5680 5675 5669 5664 5662 5660 5656 5652 5648 5645 5640 5636 5632 5629 5625 5621 5618 5615 5612 5609
5763 5760 5757 5755 5754 5752 5749 5747 5745 5741 5734 5727 5722 5717 5712 5707 5702 5696 5689 5687 5685 5683 5681 5678 5673 5668 5664 5658 5655 5651 5647 5643 5639 5633 5628 5623 5620 5617 5613 5610 5607 5603 5600